Retour au catalogue

LYNK TOWER 3

ActifCommunicationsSSO
NORAD 55046·PAYLOAD·🇺🇸 United States

Lancé Jan 3, 2023 depuis Cape Canaveral Space Force Station

Loading…

Prochains Passages (prochaines 24 heures)

TLE

FraisSource: Space-Track

Époque: Sep 14, 2026, 04:51 UTC

1 55046U 23001AP  26257.20243208  .00008613  00000-0  23214-3 0  9992
2 55046  97.3103 317.0617 0008343 148.6400 211.5345 15.38025379205585

Suivez LYNK TOWER 3 en temps réel avec AllMySat

Download on the App Store